sat.trackr.live / text

‹ back to catalog

STARLINK-32256

NORAD 60362 · 2024-138H

PAYLOAD ACTIVE UNKNOWN

§ Identity

Operator
Country
US
Launch date
2024-08-04
Launch site
AFWTR
Launch vehicle
Mass (kg)
RCS (m²)

Purposes: comms

External: N2YO · Heavens-Above · Gunter

§ Orbital elements

Epoch: 2026-09-21T19:39:39.959136Z

Period
93.85 min
Inclination
53.1602°
Eccentricity
0.0001477
Mean motion
15.34392284 rev/d
Perigee alt
461.7 km
Apogee alt
463.7 km
Semi-major
6,840.9 km
B*
2.6817e-5
RAAN
117.3371°
Arg perigee
89.0123°
Mean anomaly
271.1049°
Rev number
12,066

§ Raw data

STARLINK-322561 60362U 24138H   26264.81921249  .00000530  00000+0  26817-4 0  99962 60362  53.1602 117.3371 0001477  89.0123 271.1049 15.34392284120661

JSON: /api/v1/satellites/60362 · /tle

For live sub-satellite position, see the globe view (requires WebGL).

§ Visibility from observer

Set your observer location to see the next 7 days of passes ≥ 10°. The values pass through the URL so the page stays shareable.

No JS? Fill the form by hand. The geolocation button needs JavaScript.